STARLINK-32324, 61863

Orbit data source: Space-Track

STARLINK-32324, 61863 is a payload satellite owned by SpaceX/Seattle (US) in LEO that was launched on Thu, 07 Nov 2024 UTC via an FALCON 9 launch vehicle from the Air Force Eastern Test Range (AFETR). Payload-class satellites include a variety of spacecraft equipped with specific instruments for various scientific and technological missions. These include communications satellites like Starlink; space stations such as the ISS; scientific satellites like the Hubble; Earth observation satellites from companies like Planet Labs, Umbra, and HawkEye 360; GPS; miniature CubeSats for education and research; and military/defense satellites.

Loading next visibility...
Identifier
61863, 2024-202U
Orbit
LEO
Country
Flag of USUS
Related business
Manufacturer
SpaceX/Seattle
Mission
Operational Commercial Communications
Bus & Motor
STARLINK V2M, Unknown motor
Mass
730 kg wet, ~700 kg dry
Launch date (UTC)
2024-11-07 (2 years ago)
Launch vehicle
FALCON 9
Launch site
Air Force Eastern Test Range (AFETR)
Object type
Payload
Rocket body
Debris
Shape & HBR
Box + 2 Pan, 17.7 m
Radar Cross Section
33.884 m², Large (>1 m²)

Expand to show TLE details & history
Last TLE update: 20 hours ago

TLE from 20 hours ago
0 STARLINK-32324
1 61863U 24202U   26171.00977186 -.00006717  00000-0 -23488-3 0  9990
2 61863  43.0012  20.3618 0001067 314.2238  45.8526 15.27565174 90971
Epoch: 2026-06-20T00:14Z
TLE epoch observation values (Epoch: 2026-06-20T00:14:04.288Z)
Latitude
-0.00002°
Longitude
108.61336°
Altitude
482.359 km
Speed
7.626 km/s
True Right ascension
01h 21m 26s
True Declination
0° 00' 00"
Sunlit
Object was in daylight at epoch
Visualization orbit readout
Latitude
Unknown
Longitude
Unknown
Altitude
Unknown
Speed
Unknown
Apparent Right ascension
Unknown
Apparent Declination
Unknown
Sunlit
N/A
Visualization observer readout
Local Sidereal Time
07:19:48
Azimuth
Unknown
Elevation
Unknown
Doppler factor
Unknown
Orbital elements
Apogee altitude
485.771 km
Perigee altitude
484.306 km
Semi-major axis
6,863.175 km
Eccentricity
0.00011
Inclination
43.0012°
RAAN
20.3618°
Arg. of periapsis
314.2238°
True anomaly
45.86137°
Mean anomaly
45.8526°
Eccentric anomaly
45.85699°
Mean motion
3.81729 °/min
Orbital period
94.31 mins
BSTAR
-0.00023488
Loading maneuver chart data...
Computing Atmospheric mass density...
Loading historical data...
Loading historical data...
Loading historical data...
Loading historical data...
Loading historical data...
Loading historical data...
Loading historical data...

Documentation

Showing up to 5 results
|